Location: *
(10.5081°N, 66.9194°W)
Time: 04:41:17
(UTC+00:00)

H-2A R/B - Pass Details

Date: 30 March 2020
Orbit: 734 x 836 km, 98.2° (Epoch: 25 May)

Event Time Altitude Azimuth Distance (km) Brightness Sun altitude
Exits shadow 23:26:31 17° 86° (E) 1,995 3.5 -12.6°
Maximum altitude 23:27:22 17° 75° (ENE) 1,960 3.5 -12.8°
Drops below altitude 10° 23:30:43 10° 36° (NE) 2,398 4.3 -13.6°
Sets 23:33:48 0° 16° (NNE) 3,311 5.2 -14.4°
